TVF61HP LFPO-LOWW

Flight info

Callsign TVF61HP
Flight time N/A
Altitude 35000
Route BUBLI DCT LUVAL DCT BEGAR DCT TRA DCT GAMSA DCT BIRGI DCT NEMAL NEMAL2W
Aircraft B738/M-SDFGHIJ1RWXY/LB1

Departure

Time N/A
Airport Paris-Orly Airport (LFPO)

Arrival

Time 2026-04-25 11:42
Airport Vienna International Airport (LOWW)
Time Latitude Longitude Altitude Speed Heading
2026-04-25 11:25 47.79366 16.07799 12202 ft 359 kts 103°
2026-04-25 11:26 47.78743 16.11409 11949 ft 362 kts 103°
2026-04-25 11:26 47.78117 16.15042 11717 ft 364 kts 103°
2026-04-25 11:26 47.77503 16.18680 11470 ft 363 kts 99°
2026-04-25 11:26 47.77465 16.22384 11223 ft 357 kts 75°
2026-04-25 11:27 47.78325 16.25767 11010 ft 346 kts 57°
2026-04-25 11:27 47.79765 16.28528 10796 ft 336 kts 44°
2026-04-25 11:27 47.81343 16.30991 10561 ft 329 kts 43°
2026-04-25 11:27 47.82389 16.32600 10413 ft 324 kts 43°
2026-04-25 11:28 47.84443 16.35804 10120 ft 316 kts 43°
2026-04-25 11:28 47.85932 16.38164 9948 ft 308 kts 43°
2026-04-25 11:28 47.87345 16.40420 9912 ft 296 kts 43°
2026-04-25 11:28 47.88526 16.42949 9720 ft 297 kts 66°
2026-04-25 11:29 47.89114 16.45892 9462 ft 297 kts 71°
2026-04-25 11:29 47.89531 16.48920 9096 ft 300 kts 86°
2026-04-25 11:29 47.89113 16.51946 8885 ft 302 kts 115°
2026-04-25 11:29 47.87838 16.54397 8689 ft 301 kts 142°
2026-04-25 11:30 47.86040 16.55862 8484 ft 299 kts 164°
2026-04-25 11:30 47.84043 16.56717 8320 ft 300 kts 167°
2026-04-25 11:30 47.82020 16.57517 8107 ft 302 kts 167°
2026-04-25 11:30 47.79986 16.58322 7897 ft 303 kts 167°
2026-04-25 11:31 47.77959 16.59144 7694 ft 300 kts 167°
2026-04-25 11:31 47.75965 16.59968 7478 ft 295 kts 167°
2026-04-25 11:31 47.74003 16.60784 7285 ft 291 kts 167°
2026-04-25 11:31 47.72071 16.61584 7080 ft 285 kts 167°
2026-04-25 11:32 47.70188 16.62383 6877 ft 279 kts 162°
2026-04-25 11:32 47.68567 16.63898 6681 ft 276 kts 131°
2026-04-25 11:32 47.67649 16.66335 6526 ft 270 kts 103°
2026-04-25 11:32 47.67500 16.69075 6373 ft 266 kts 79°
2026-04-25 11:33 47.67994 16.71683 6170 ft 262 kts 57°
2026-04-25 11:33 47.69212 16.73589 6009 ft 252 kts 26°
2026-04-25 11:33 47.70269 16.74253 5895 ft 247 kts 10°
2026-04-25 11:33 47.72520 16.74344 5663 ft 242 kts 348°
2026-04-25 11:34 47.73614 16.74028 5555 ft 241 kts 344°
2026-04-25 11:34 47.75243 16.73406 5363 ft 241 kts 342°
2026-04-25 11:34 47.76840 16.72737 5189 ft 235 kts 341°
2026-04-25 11:34 47.78857 16.71878 4971 ft 220 kts 342°
2026-04-25 11:35 47.79831 16.71466 4893 ft 210 kts 342°
2026-04-25 11:35 47.81214 16.70883 4733 ft 207 kts 341°
2026-04-25 11:35 47.82587 16.70291 4570 ft 203 kts 341°
2026-04-25 11:35 47.83928 16.69731 4419 ft 195 kts 341°
2026-04-25 11:36 47.85207 16.69179 4224 ft 188 kts 342°
2026-04-25 11:36 47.86458 16.68673 4074 ft 184 kts 342°
2026-04-25 11:36 47.87671 16.68185 3947 ft 175 kts 340°
2026-04-25 11:36 47.88801 16.67700 3811 ft 165 kts 339°
2026-04-25 11:37 47.89884 16.67216 3708 ft 162 kts 339°
2026-04-25 11:37 47.90967 16.66751 3612 ft 160 kts 340°
2026-04-25 11:37 47.92004 16.66304 3509 ft 155 kts 339°
2026-04-25 11:37 47.93040 16.65870 3367 ft 152 kts 341°
2026-04-25 11:38 47.94080 16.65419 3277 ft 157 kts 339°
2026-04-25 11:38 47.95081 16.64977 3194 ft 149 kts 339°
2026-04-25 11:38 47.96056 16.64558 3122 ft 141 kts 339°
2026-04-25 11:38 47.97008 16.64164 2983 ft 145 kts 340°
2026-04-25 11:39 47.97982 16.63769 2816 ft 145 kts 340°
2026-04-25 11:39 47.98953 16.63342 2678 ft 147 kts 337°
2026-04-25 11:39 47.99963 16.62917 2375 ft 153 kts 339°
2026-04-25 11:39 48.00966 16.62483 2216 ft 149 kts 339°
2026-04-25 11:40 48.01954 16.62071 2048 ft 148 kts 339°
2026-04-25 11:40 48.02966 16.61637 1830 ft 155 kts 339°
2026-04-25 11:40 48.03990 16.61202 1649 ft 151 kts 340°
2026-04-25 11:40 48.04998 16.60783 1400 ft 151 kts 340°
2026-04-25 11:41 48.05989 16.60365 1209 ft 147 kts 341°
2026-04-25 11:41 48.06974 16.59945 1007 ft 149 kts 340°
2026-04-25 11:41 48.07976 16.59518 827 ft 148 kts 340°
2026-04-25 11:41 48.08958 16.59098 642 ft 145 kts 340°
2026-04-25 11:42 48.09854 16.58711 616 ft 116 kts 345°
2026-04-25 11:42 48.10462 16.58454 614 ft 63 kts 343°
2026-04-25 11:42 48.10747 16.58254 615 ft 37 kts 318°
2026-04-25 11:42 48.10896 16.58023 620 ft 25 kts 313°
2026-04-25 11:43 48.11002 16.57860 613 ft 21 kts 314°
2026-04-25 11:43 48.11078 16.57675 617 ft 21 kts 297°
2026-04-25 11:43 48.11140 16.57485 611 ft 20 kts 295°
2026-04-25 11:43 48.11200 16.57300 616 ft 19 kts 296°
2026-04-25 11:44 48.11258 16.57121 615 ft 19 kts 296°
2026-04-25 11:44 48.11313 16.56951 609 ft 18 kts 295°
2026-04-25 11:44 48.11373 16.56769 614 ft 21 kts 296°
2026-04-25 11:44 48.11436 16.56577 618 ft 20 kts 295°
2026-04-25 11:45 48.11496 16.56391 611 ft 20 kts 296°
2026-04-25 11:45 48.11556 16.56212 613 ft 19 kts 296°
2026-04-25 11:45 48.11612 16.56037 617 ft 18 kts 295°
2026-04-25 11:45 48.11665 16.55869 621 ft 18 kts 295°
2026-04-25 11:46 48.11718 16.55706 617 ft 17 kts 295°
2026-04-25 11:46 48.11768 16.55549 617 ft 16 kts 294°
2026-04-25 11:46 48.11838 16.55428 612 ft 16 kts 348°
2026-04-25 11:46 48.11919 16.55342 618 ft 13 kts 300°
2026-04-25 11:47 48.11997 16.55335 613 ft 13 kts 27°
2026-04-25 11:47 48.12053 16.55325 613 ft 7 kts 295°
2026-04-25 11:47 48.12063 16.55291 609 ft 0 kts 296°
2026-04-25 11:50 48.12063 16.55292 609 ft 0 kts 296°